Tracking 34794 objects as of 19-Jul-2026
HD Live streaming from Space Station
objects crossing your sky now

USA 435

Track USA 435 now!
10-day predictions


NORAD ID: 61658
Int'l Code: 2024-192Q
Perigee: 582.1 km
Apogee: 586.3 km
Inclination: 70.0 °
Period: 96.2 minutes
Semi major axis: 6955 km
RCS: Unknown
Launch date: October 24, 2024
Source: United States (US)
Launch site: AIR FORCE WESTERN TEST RANGE (AFWTR)
Your satellite tracking list
Your tracking list is empty




NASA's NSSDC Master Catalog

Two Line Element Set (TLE):
1 61658U 24192Q   26179.92741209 0.00000000  00000-0  00000-0 0    06
2 61658  70.0142 222.7193 0003000  53.8339 306.1660 14.96713101    07
Source of the keplerian elements: McCants